Location: Abraham Lincoln Continuation High School
(33.9711°N, 117.3662°W)
Time: 04:46:24
(UTC+00:00)

Meteor 2-11 Rocket - Pass Details

Date: 21 September 2020
Orbit: 939 x 957 km, 82.5° (Epoch: 25 October)

Event Time Altitude Azimuth Distance (km) Brightness Sun altitude
Rises 02:10:12 0° 183° (S) 3,613 7.5 -5.4°
Reaches altitude 10° 02:12:41 10° 182° (S) 2,673 6.8 -5.9°
Maximum altitude 02:18:48 84° 96° (E) 966 4.5 -7.2°
Drops below altitude 10° 02:24:59 10° 8° (N) 2,693 6.8 -8.5°
Sets 02:27:29 0° 8° (N) 3,642 7.5 -9.0°
